GW3593 Weather Reports


time (UTC)temp
C
wind
direction
speed
KPH
gust
KPH
rain 1hr
cm
rain 24hr
cm
rain mn
cm
humidity
%
barometer
mb
20260504150941 21 284 3.2 3.2 0.00 0.00 0.00 61 1017.9
20260504150437 21 251 1.6 4.8 0.00 0.00 0.00 61 1018.0
20260504140904 17 39 1.6 3.2 0.00 0.00 0.00 68 1018.3
20260504140400 17 139 0.0 8.0 0.00 0.00 0.00 71 1018.5
20260504130325 11 126 0.0 0.0 0.00 0.00 0.00 93 1018.7
20260504120248 8 123 0.0 0.0 0.00 0.00 0.00 99 1018.4
20260504110716 7 126 0.0 0.0 0.00 0.00 0.00 99 1018.2
20260504110212 7 130 0.0 0.0 0.00 0.00 0.00 99 1018.1
20260504100131 6 128 0.0 0.0 0.00 0.00 0.00 99 1017.8
20260504081524 7 128 0.0 0.0 0.00 0.00 0.00 99 1017.8
20260504081019 7 126 0.0 0.0 0.00 0.00 0.00 99 1018.0
20260504080516 7 126 0.0 0.0 0.00 0.00 0.00 99 1018.1
20260504050334 7 118 0.0 0.0 0.00 0.00 0.00 96 1019.1
20260504045831 7 123 0.0 0.0 0.00 0.00 0.00 96 1019.1
20260504045326 7 125 0.0 0.0 0.00 0.00 0.00 96 1019.2
20260504044823 7 136 0.0 0.0 0.00 0.00 0.00 96 1019.1
20260504044320 7 146 0.0 0.0 0.00 0.00 0.00 96 1019.1
20260504043818 7 133 0.0 0.0 0.00 0.00 0.00 96 1019.2
20260504043314 7 125 0.0 0.0 0.00 0.00 0.00 96 1019.1
20260504042812 7 123 0.0 0.0 0.00 0.00 0.00 96 1019.1
20260504042308 7 122 0.0 0.0 0.00 0.00 0.00 96 1019.3
20260504041805 7 125 0.0 0.0 0.00 0.00 0.00 96 1019.3
20260504041301 7 116 0.0 0.0 0.00 0.00 0.00 96 1019.3
20260504040757 7 103 0.0 0.0 0.00 0.00 0.00 96 1019.4
20260504040255 7 125 0.0 0.0 0.00 0.00 0.00 96 1019.3
20260504035750 7 113 0.0 0.0 0.00 0.00 0.00 96 1019.3
20260504035248 8 125 0.0 0.0 0.00 0.00 0.00 96 1019.5
20260504034745 8 113 0.0 0.0 0.00 0.00 0.00 95 1019.5
20260504034242 8 116 0.0 0.0 0.00 0.00 0.00 95 1019.5
20260504033740 8 125 0.0 0.0 0.00 0.00 0.00 95 1019.3
20260504033237 8 112 0.0 0.0 0.00 0.00 0.00 95 1019.5
20260504032734 8 109 0.0 0.0 0.00 0.00 0.00 95 1019.5
20260504032231 8 123 0.0 0.0 0.00 0.00 0.00 95 1019.3
20260504031728 8 112 0.0 0.0 0.00 0.00 0.00 95 1019.4
20260504031225 8 102 0.0 0.0 0.00 0.00 0.00 95 1019.5
20260504030721 8 113 0.0 0.0 0.00 0.00 0.00 95 1019.7
20260504030219 8 117 0.0 0.0 0.00 0.00 0.00 94 1019.8
20260504025715 8 135 0.0 0.0 0.00 0.00 0.00 94 1019.4
20260504025211 8 116 0.0 0.0 0.00 0.00 0.00 94 1019.6
20260504024709 8 122 0.0 0.0 0.00 0.00 0.00 94 1019.7
20260504024205 8 122 0.0 0.0 0.00 0.00 0.00 93 1019.8
20260504023702 8 118 0.0 0.0 0.00 0.00 0.00 93 1019.7
20260504023158 8 114 0.0 0.0 0.00 0.00 0.00 92 1019.8
20260504022654 8 123 0.0 0.0 0.00 0.00 0.00 92 1019.7
20260504022150 9 129 0.0 0.0 0.00 0.00 0.00 91 1019.7
20260504021648 9 123 0.0 0.0 0.00 0.00 0.00 91 1019.6
20260504021145 9 123 0.0 0.0 0.00 0.00 0.00 90 1019.8
20260504020642 10 123 0.0 0.0 0.00 0.00 0.00 90 1019.6
20260504020137 10 123 0.0 0.0 0.00 0.00 0.00 89 1019.6
20260504015635 10 123 0.0 0.0 0.00 0.00 0.00 88 1019.5
20260504015131 10 123 0.0 0.0 0.00 0.00 0.00 87 1019.3
20260504014626 10 123 0.0 0.0 0.00 0.00 0.00 86 1019.3
20260504014124 10 123 0.0 0.0 0.00 0.00 0.00 86 1019.4
20260504013621 10 123 0.0 0.0 0.00 0.00 0.00 84 1019.4
20260504013118 11 123 0.0 0.0 0.00 0.00 0.00 83 1019.2
20260504012615 11 126 0.0 0.0 0.00 0.00 0.00 82 1019.4
20260504012113 11 126 0.0 0.0 0.00 0.00 0.00 81 1019.2
20260504011610 11 124 0.0 0.0 0.00 0.00 0.00 79 1019.0
20260504011106 12 123 0.0 0.0 0.00 0.00 0.00 78 1019.0
20260504010602 12 123 0.0 0.0 0.00 0.00 0.00 77 1019.2
20260504010058 12 123 0.0 0.0 0.00 0.00 0.00 75 1019.3
20260504005555 12 122 0.0 0.0 0.00 0.00 0.00 73 1019.3
20260504005052 13 123 0.0 0.0 0.00 0.00 0.00 72 1019.2
20260504004550 13 123 0.0 0.0 0.00 0.00 0.00 70 1019.2
20260504004047 13 124 0.0 0.0 0.00 0.00 0.00 68 1019.3
20260504003543 14 129 0.0 0.0 0.00 0.00 0.00 69 1019.4
20260504003040 15 131 0.0 0.0 0.00 0.00 0.00 65 1019.3
20260504002537 15 131 0.0 0.0 0.00 0.00 0.00 63 1019.0
20260504002034 15 132 0.0 0.0 0.00 0.00 0.00 60 1019.3
20260504001532 15 132 0.0 0.0 0.00 0.00 0.00 59 1019.4
20260504001028 16 132 0.0 0.0 0.00 0.00 0.00 59 1019.4
20260504000525 16 132 0.0 0.0 0.00 0.00 0.00 58 1019.1
20260504000023 16 133 0.0 0.0 0.00 0.00 0.00 54 1019.3
20260503235521 17 133 0.0 0.0 0.00 0.00 0.00 55 1019.2
20260503235017 17 165 0.0 0.0 0.00 0.00 0.00 51 1019.1
20260503234515 18 151 0.0 1.6 0.00 0.00 0.00 52 1019.4
20260503234013 18 134 0.0 1.6 0.00 0.00 0.00 46 1019.3
20260503233509 18 76 0.0 1.6 0.00 0.00 0.00 42 1019.1
20260503233005 18 134 0.0 0.0 0.00 0.00 0.00 42 1019.2
20260503232502 18 138 0.0 0.0 0.00 0.00 0.00 42 1019.3
20260503232000 18 155 0.0 0.0 0.00 0.00 0.00 44 1019.3
20260503231457 19 149 0.0 1.6 0.00 0.00 0.00 43 1019.5
20260503230954 19 72 0.0 1.6 0.00 0.00 0.00 40 1019.6
20260503230450 19 197 1.6 1.6 0.00 0.00 0.00 40 1019.4
20260503225948 19 123 0.0 0.0 0.00 0.00 0.00 40 1019.6
20260503225445 19 124 0.0 0.0 0.00 0.00 0.00 39 1019.5
20260503224940 20 133 0.0 1.6 0.00 0.00 0.00 39 1019.6
20260503224437 20 82 0.0 0.0 0.00 0.00 0.00 40 1019.9
20260503223935 20 154 0.0 3.2 0.00 0.00 0.00 36 1019.8
20260503223433 20 167 1.6 3.2 0.00 0.00 0.00 38 1019.9
20260503222928 20 137 0.0 1.6 0.00 0.00 0.00 38 1020.0
20260503222427 20 109 0.0 1.6 0.00 0.00 0.00 37 1019.9
20260503221925 21 294 1.6 3.2 0.00 0.00 0.00 37 1019.9
20260503221423 21 277 3.2 8.0 0.00 0.00 0.00 35 1020.3
20260503220919 21 146 1.6 1.6 0.00 0.00 0.00 34 1020.0
20260503220416 21 93 0.0 3.2 0.00 0.00 0.00 37 1020.2
20260503215913 21 97 1.6 3.2 0.00 0.00 0.00 35 1020.3
20260503215410 22 137 1.6 1.6 0.00 0.00 0.00 34 1020.7
20260503214907 22 202 0.0 1.6 0.00 0.00 0.00 33 1020.5
20260503214404 22 162 0.0 0.0 0.00 0.00 0.00 34 1020.7
20260503213902 22 155 1.6 4.8 0.00 0.00 0.00 33 1020.7
20260503213400 22 303 3.2 4.8 0.00 0.00 0.00 34 1020.7
20260503212856 22 153 3.2 3.2 0.00 0.00 0.00 34 1020.6
20260503212354 21 85 1.6 1.6 0.00 0.00 0.00 36 1020.8
20260503211851 21 290 3.2 8.0 0.00 0.00 0.00 34 1020.9
20260503211348 22 162 1.6 3.2 0.00 0.00 0.00 32 1020.8
20260503210843 22 322 1.6 8.0 0.00 0.00 0.00 33 1020.9
20260503210340 22 277 3.2 3.2 0.00 0.00 0.00 34 1020.8
20260503205835 22 167 0.0 1.6 0.00 0.00 0.00 33 1021.1
20260503205332 22 231 1.6 4.8 0.00 0.00 0.00 35 1021.1
20260503204828 21 140 0.0 1.6 0.00 0.00 0.00 37 1021.2
20260503204326 21 306 3.2 8.0 0.00 0.00 0.00 36 1021.3
20260503203823 20 81 0.0 4.8 0.00 0.00 0.00 35 1021.4
20260503203321 21 274 4.8 8.0 0.00 0.00 0.00 37 1021.4
20260503202817 21 180 3.2 3.2 0.00 0.00 0.00 34 1021.5
20260503202315 21 102 1.6 8.0 0.00 0.00 0.00 36 1021.7
20260503201813 20 169 0.0 3.2 0.00 0.00 0.00 39 1022.0
20260503201310 20 95 1.6 4.8 0.00 0.00 0.00 35 1021.8
20260503200808 20 321 4.8 8.0 0.00 0.00 0.00 36 1021.9
20260503200303 21 13 3.2 3.2 0.00 0.00 0.00 35 1022.2
20260503195801 21 173 0.0 3.2 0.00 0.00 0.00 37 1022.0
20260503195257 20 181 1.6 8.0 0.00 0.00 0.00 36 1022.2
20260503194755 20 34 3.2 3.2 0.00 0.00 0.00 37 1022.5
20260503194250 20 37 0.0 1.6 0.00 0.00 0.00 39 1022.4
20260503193747 20 285 6.4 8.0 0.00 0.00 0.00 38 1022.5
20260503193243 20 294 1.6 3.2 0.00 0.00 0.00 41 1022.6
20260503192738 20 45 3.2 3.2 0.00 0.00 0.00 39 1022.6
20260503192234 20 197 0.0 3.2 0.00 0.00 0.00 40 1022.5
20260503191731 20 4 3.2 4.8 0.00 0.00 0.00 42 1022.7
20260503191228 20 66 1.6 3.2 0.00 0.00 0.00 37 1022.9
20260503190725 20 78 1.6 4.8 0.00 0.00 0.00 36 1023.1
20260503190221 19 341 1.6 3.2 0.00 0.00 0.00 40 1022.9
20260503185719 20 45 3.2 4.8 0.00 0.00 0.00 38 1023.2
20260503185214 20 104 0.0 3.2 0.00 0.00 0.00 38 1023.3
20260503184709 20 149 3.2 4.8 0.00 0.00 0.00 36 1023.2
20260503184206 20 154 1.6 4.8 0.00 0.00 0.00 36 1023.3
20260503183702 20 58 0.0 3.2 0.00 0.00 0.00 38 1023.3
20260503183159 19 203 3.2 4.8 0.00 0.00 0.00 38 1023.6
20260503182657 20 217 1.6 3.2 0.00 0.00 0.00 39 1023.8
20260503182155 20 296 1.6 3.2 0.00 0.00 0.00 35 1023.6
20260503181652 20 187 0.0 3.2 0.00 0.00 0.00 36 1023.8
20260503181149 19 162 1.6 4.8 0.00 0.00 0.00 39 1023.7
20260503180646 19 207 4.8 9.7 0.00 0.00 0.00 36 1023.8
20260503180144 19 136 3.2 4.8 0.00 0.00 0.00 38 1023.8
20260503175640 18 80 0.0 3.2 0.00 0.00 0.00 37 1023.9
20260503175138 18 132 3.2 4.8 0.00 0.00 0.00 39 1023.9
20260503174634 18 342 4.8 8.0 0.00 0.00 0.00 39 1024.1
20260503174131 18 147 3.2 12.9 0.00 0.00 0.00 40 1024.3
20260503173626 18 326 1.6 4.8 0.00 0.00 0.00 40 1024.3
20260503173123 17 46 1.6 9.7 0.00 0.00 0.00 41 1024.3
20260503172620 17 143 0.0 3.2 0.00 0.00 0.00 39 1024.1
20260503172118 18 51 3.2 3.2 0.00 0.00 0.00 39 1024.4
20260503171614 17 353 0.0 1.6 0.00 0.00 0.00 40 1024.4
20260503171111 18 102 0.0 4.8 0.00 0.00 0.00 41 1024.2
20260503170608 17 72 0.0 0.0 0.00 0.00 0.00 39 1024.6
20260503170105 17 15 3.2 4.8 0.00 0.00 0.00 39 1024.5